"2010-11-03 00:00:00",302701,1.841,276.9,1.397,0.068,16.5,106.2198,15.2,16.04,29.72,0,110.6,13.26,16.00,238.9
"2010-11-03 00:00:30",302702,1.892,273.9,1.092,0.096,16.58,106.224,15.21,16.05,29.74,0,110.6,13.26,16.01,235.9
"2010-11-03 00:01:00",302703,1.913,273.4,1.491,0.047,16.56,106.2279,15.22,16.06,29.72,0,110.5,13.26,16.02,235.4
"2010-11-03 00:01:30",302704,1.793,277.2,2.655,0.072,16.53,106.2355,15.24,16.07,29.74,0,110.5,13.26,16.04,239.2
"2010-11-03 00:02:00",302705,1.78,274.5,2.363,0.079,16.56,106.2418,15.25,16.05,29.74,0,110.5,13.26,16.06,236.5
"2010-11-03 00:02:30",302706,1.686,274.3,1.327,0.084,16.62,106.2448,15.26,16.07,29.74,0,110.5,13.26,16.07,236.3
"2010-11-03 00:03:00",302707,1.634,274.1,1.727,0.065,16.64,106.2472,15.27,16.07,29.74,0,110.5,13.26,16.07,236.1
"2010-11-03 00:03:30",302708,1.571,272.9,2.293,0.08,16.67,106.247,15.27,16.07,29.73,0,110.5,13.26,16.07,234.9
"2010-11-03 00:04:00",302709,1.77,271.2,1.369,0.046,16.5,106.2414,15.25,16.07,29.69,0,110.5,13.26,16.06,233.2
"2010-11-03 00:04:30",302710,1.672,274,2.059,0.061,16.61,106.229,15.22,16.07,29.7,0,110.5,13.26,16.02,236.0
"2010-11-03 00:05:00",302711,1.552,276.9,1.951,0.081,16.57,106.2223,15.2,16.06,29.72,0,110.5,13.27,16.01,238.9
"2010-11-03 00:05:30",302712,1.47,277.5,1.822,0.057,16.53,106.2203,15.2,16.07,29.72,0,110.5,13.27,16.00,239.5
"2010-11-03 00:06:00",302713,1.446,275.4,3.445,0.086,16.5,106.2183,15.19,16.07,29.72,0,110.5,13.27,16.00,237.4
"2010-11-03 00:06:30",302714,1.607,273.4,1.984,0.07,16.62,106.2183,15.19,16.08,29.71,0,110.5,13.27,16.00,235.4
"2010-11-03 00:07:00",302715,1.417,279.4,2.294,0.071,16.51,106.2183,15.19,16.07,29.73,0,110.5,13.27,16.00,241.4
"2010-11-03 00:07:30",302716,1.432,277.2,1.904,0.067,16.55,106.2183,15.19,16.07,29.74,0,110.5,13.27,16.00,239.2
"2010-11-03 00:08:00",302717,1.584,275.6,1.823,0.135,16.58,106.2183,15.19,16.07,29.7,0,110.5,13.28,16.00,237.6
"2010-11-03 00:08:30",302718,1.527,277.7,1.986,0.058,16.54,106.2183,15.19,16.08,29.71,0,110.5,13.28,16.00,239.7
"2010-11-03 00:09:00",302719,1.458,278.7,1.098,0.059,16.49,106.2183,15.19,16.07,29.71,0,110.5,13.28,16.00,240.7
"2010-11-03 00:09:30",302720,1.538,275.5,2.453,0.084,16.62,106.2186,15.19,16.07,29.73,0,110.5,13.28,16.00,237.5
"2010-11-03 00:10:00",302721,1.44,276.3,1.79,0.078,16.57,106.2183,15.19,16.08,29.73,0,110.5,13.28,16.00,238.3
"2010-11-03 00:10:30",302722,1.334,279.8,2.644,0.053,16.51,106.2225,15.2,16.07,29.74,0,110.5,13.28,16.01,241.8
"2010-11-03 00:11:00",302723,1.365,280.8,1.465,0.054,16.5,106.2246,15.21,16.08,29.74,0,110.5,13.28,16.01,242.8
"2010-11-03 00:11:30",302724,1.341,283.1,1.848,0.042,16.62,106.2306,15.22,16.08,29.76,0,110.5,13.28,16.03,245.1
"2010-11-03 00:12:00",302725,1.292,285,1.895,0.041,16.65,106.2375,15.24,16.09,29.76,0,110.5,13.28,16.05,247.0
"2010-11-03 00:12:30",302726,1.205,285.5,2.602,0.053,16.6,106.2411,15.25,16.09,29.75,0,110.5,13.28,16.06,247.5
"2010-11-03 00:13:00",302727,1.328,281.1,1.525,0.052,16.51,106.2476,15.27,16.09,29.75,0,110.5,13.28,16.07,243.1
"2010-11-03 00:13:30",302728,1.261,279.7,1.672,0.091,16.5,106.2509,15.28,16.09,29.74,0,110.5,13.28,16.08,241.7
"2010-11-03 00:14:00",302729,1.333,279.9,3.658,0.084,16.57,106.2539,15.28,16.09,29.74,0,110.5,13.29,16.09,241.9
"2010-11-03 00:14:30",302730,1.223,280.6,2.028,0.057,16.48,106.2542,15.28,16.1,29.73,0,110.5,13.29,16.09,242.6
"2010-11-03 00:15:00",302731,1.336,276.9,1.517,0.041,16.53,106.2542,15.28,16.1,29.73,0,110.5,13.29,16.09,238.9
"2010-11-03 00:15:30",302732,1.223,280.5,2.646,0.046,16.52,106.2542,15.28,16.11,29.74,0,110.5,13.29,16.09,242.5
"2010-11-03 00:16:00",302733,1.205,278.9,2.594,0.063,16.52,106.2542,15.28,16.11,29.74,0,110.5,13.29,16.09,240.9
"2010-11-03 00:16:30",302734,1.143,281.2,0.948,0.031,16.48,106.2542,15.28,16.11,29.73,0,110.5,13.29,16.09,243.2
"2010-11-03 00:17:00",302735,1.14,281.3,1.993,0.037,16.49,106.2542,15.28,16.11,29.73,0,110.5,13.29,16.09,243.3
"2010-11-03 00:17:30",302736,1.107,283.2,0.958,0.066,16.55,106.2542,15.28,16.11,29.72,0,110.5,13.29,16.09,245.2
"2010-11-03 00:18:00",302737,1.335,279.8,2.659,0.093,16.55,106.2542,15.28,16.11,29.72,0,110.4,13.28,16.09,241.8
"2010-11-03 00:18:30",302738,1.2,279,3.682,0.099,16.57,106.2542,15.28,16.11,29.73,0,110.5,13.29,16.09,241.0
"2010-11-03 00:19:00",302739,1.077,280.3,0.898,0.041,16.52,106.2542,15.28,16.12,29.72,0,110.4,13.29,16.09,242.3
"2010-11-03 00:19:30",302740,1.104,280.8,0.909,0.029,16.51,106.2542,15.28,16.15,29.73,0,110.4,13.29,16.09,242.8
"2010-11-03 00:20:00",302741,1.124,282.8,1.153,0.012,16.55,106.2542,15.28,16.12,29.73,0,110.4,13.29,16.09,244.8
"2010-11-03 00:20:30",302742,1.143,283.2,1.527,0.037,16.55,106.2542,15.28,16.15,29.72,0,110.4,13.29,16.09,245.2
"2010-11-03 00:21:00",302743,1.144,283.3,0.958,0.043,16.57,106.2542,15.28,16.14,29.72,0,110.4,13.29,16.09,245.3
"2010-11-03 00:21:30",302744,1.111,282.7,1.705,0.044,16.53,106.2537,15.28,16.13,29.71,0,110.5,13.29,16.09,244.7
"2010-11-03 00:22:00",302745,1.206,281.8,2.628,0.035,16.55,106.2545,15.28,16.14,29.72,0,110.4,13.29,16.09,243.8
"2010-11-03 00:22:30",302746,1.133,282.6,2.261,0.095,16.58,106.2555,15.29,16.14,29.71,0,110.4,13.29,16.09,244.6
"2010-11-03 00:23:00",302747,1.161,281.6,1.746,0.041,16.59,106.2599,15.3,16.15,29.72,0,110.4,13.3,16.10,243.6
"2010-11-03 00:23:30",302748,1.154,282.8,1.355,0.03,16.56,106.265,15.31,16.16,29.71,0,110.4,13.3,16.12,244.8
"2010-11-03 00:24:00",302749,1.169,282.5,0.937,0.026,16.59,106.2692,15.32,16.15,29.7,0,110.4,13.3,16.13,244.5
"2010-11-03 00:24:30",302750,1.156,284.9,1.109,0.042,16.62,106.2704,15.33,16.15,29.71,0,110.4,13.3,16.13,246.9
"2010-11-03 00:25:00",302751,1.166,283.9,2.028,0.062,16.58,106.2738,15.33,16.15,29.71,0,110.4,13.3,16.14,245.9
"2010-11-03 00:25:30",302752,1.186,284.7,1.638,0.072,16.61,106.2743,15.34,16.15,29.69,0,110.4,13.3,16.14,246.7
"2010-11-03 00:26:00",302753,1.187,284.8,1.56,0.049,16.62,106.2752,15.34,16.16,29.7,0,110.4,13.3,16.14,246.8
"2010-11-03 00:26:30",302754,1.069,281.6,1.42,0.031,16.55,106.28,15.35,16.16,29.69,0,110.4,13.3,16.16,243.6
"2010-11-03 00:27:00",302755,1.081,280.4,1.333,0.045,16.53,106.2769,15.34,16.17,29.69,0,110.4,13.3,16.15,242.4
"2010-11-03 00:27:30",302756,1.01,280.3,1.415,0.037,16.53,106.2704,15.33,16.15,29.7,0,110.4,13.3,16.13,242.3
"2010-11-03 00:28:00",302757,0.962,282,1.059,0.017,16.52,106.2625,15.31,16.16,29.7,0,110.4,13.3,16.11,244.0
"2010-11-03 00:28:30",302758,0.964,285.3,2.243,0.07,16.6,106.2606,15.3,16.16,29.71,0,110.4,13.3,16.11,247.3
"2010-11-03 00:29:00",302759,1.037,283.2,1.36,0.065,16.58,106.2577,15.29,16.16,29.7,0,110.4,13.3,16.10,245.2
"2010-11-03 00:29:30",302760,0.977,283.1,1.542,0.039,16.56,106.2566,15.29,16.17,29.71,0,110.4,13.3,16.10,245.1
"2010-11-03 00:30:00",302761,0.935,280.8,2.852,0.043,16.6,106.2563,15.29,16.18,29.71,0,110.4,13.3,16.09,242.8
"2010-11-03 00:30:30",302762,0.921,281.2,1.655,0.029,16.54,106.2566,15.29,16.16,29.7,0,110.4,13.3,16.10,243.2
"2010-11-03 00:31:00",302763,0.913,282.5,1.475,0.028,16.52,106.2563,15.29,16.17,29.71,0,110.4,13.3,16.09,244.5
"2010-11-03 00:31:30",302764,0.885,280.5,2.271,0.058,16.57,106.2563,15.29,16.17,29.71,0,110.4,13.31,16.09,242.5
"2010-11-03 00:32:00",302765,0.845,276.9,0.987,0.035,16.67,106.2563,15.29,16.17,29.7,0,110.4,13.31,16.09,238.9
"2010-11-03 00:32:30",302766,0.811,279.7,1.722,0.031,16.62,106.2563,15.29,16.17,29.71,0,110.4,13.31,16.09,241.7
"2010-11-03 00:33:00",302767,0.761,279.3,1.33,0.014,16.61,106.2563,15.29,16.17,29.73,0,110.4,13.31,16.09,241.3
"2010-11-03 00:33:30",302768,0.781,277.8,2.241,0.039,16.68,106.2563,15.29,16.17,29.72,0,110.4,13.3,16.09,239.8
"2010-11-03 00:34:00",302769,0.777,274.7,1.478,0.034,16.79,106.2563,15.29,16.18,29.71,0,110.4,13.3,16.09,236.7
"2010-11-03 00:34:30",302770,0.773,275.6,2.354,0.022,16.76,106.2563,15.29,16.19,29.71,0,110.4,13.3,16.09,237.6
"2010-11-03 00:35:00",302771,0.725,277.5,0.863,0.037,16.72,106.2563,15.29,16.17,29.73,0,110.4,13.3,16.09,239.5
"2010-11-03 00:35:30",302772,0.693,277,1.331,0.033,16.8,106.2563,15.29,16.19,29.72,0,110.4,13.3,16.09,239.0
"2010-11-03 00:36:00",302773,0.735,275.1,1.837,0.03,16.8,106.2563,15.29,16.17,29.7,0,110.4,13.3,16.09,237.1
"2010-11-03 00:36:30",302774,0.742,282.1,5.968,0.043,16.73,106.2569,15.29,16.19,29.71,0,110.4,13.3,16.10,244.1
"2010-11-03 00:37:00",302775,0.654,287.2,2.411,0.071,16.7,106.2575,15.29,16.18,29.67,0,110.4,13.3,16.10,249.2
"2010-11-03 00:37:30",302776,0.77,289.7,3.777,0.054,16.72,106.2581,15.29,16.19,29.64,0,110.4,13.3,16.10,251.7
"2010-11-03 00:38:00",302777,0.676,287.1,3.385,0.047,16.69,106.2614,15.3,16.18,29.62,0,110.4,13.3,16.11,249.1
"2010-11-03 00:38:30",302778,0.617,299.4,13.37,0.079,16.86,106.2661,15.31,16.21,29.6,0,110.4,13.31,16.12,261.4
"2010-11-03 00:39:00",302779,0.505,295.8,6.107,0.115,16.7,106.2814,15.35,16.21,29.57,0,110.4,13.31,16.16,257.8
"2010-11-03 00:39:30",302780,0.603,291,2.171,0.05,16.68,106.2836,15.36,16.22,29.62,0,110.4,13.31,16.16,253.0
"2010-11-03 00:40:00",302781,0.508,292.2,2.367,0.051,16.69,106.2843,15.36,16.22,29.58,0,110.4,13.32,16.17,254.2
"2010-11-03 00:40:30",302782,0.512,300.5,2.847,0.048,16.72,106.2904,15.38,16.22,29.56,0,110.4,13.32,16.18,262.5
"2010-11-03 00:41:00",302783,0.603,305.7,6.337,0.133,16.94,106.2942,15.39,16.23,29.53,0,110.4,13.32,16.19,267.7
"2010-11-03 00:41:30",302784,0.793,299.5,3.277,0.071,16.94,106.3045,15.41,16.23,29.48,0,110.4,13.32,16.22,261.5
"2010-11-03 00:42:00",302785,0.681,293.1,3.632,0.132,16.74,106.3117,15.43,16.25,29.49,0,110.4,13.32,16.24,255.1
"2010-11-03 00:42:30",302786,0.46,293,8.46,0.067,16.73,106.3162,15.44,16.23,29.47,0,110.4,13.32,16.25,255.0
"2010-11-03 00:43:00",302787,0.471,294.3,4.48,0.039,16.71,106.3173,15.45,16.25,29.46,0,110.4,13.32,16.25,256.3
"2010-11-03 00:43:30",302788,0.427,287.3,3.664,0.039,16.74,106.3185,15.45,16.25,29.45,0,110.4,13.32,16.25,249.3
"2010-11-03 00:44:00",302789,0.49,290.9,5.73,0.039,16.71,106.3188,15.45,16.25,29.44,0,110.4,13.32,16.26,252.9
"2010-11-03 00:44:30",302790,0.51,297.4,5.786,0.031,16.73,106.3185,15.45,16.25,29.46,0,110.4,13.32,16.25,259.4
"2010-11-03 00:45:00",302791,0.528,303,4.361,0.049,16.79,106.3168,15.44,16.27,29.45,0,110.4,13.32,16.25,265.0
"2010-11-03 00:45:30",302792,0.564,298.9,2.205,0.054,16.73,106.3131,15.44,16.27,29.47,0,110.4,13.32,16.24,260.9
"2010-11-03 00:46:00",302793,0.507,304,3.083,0.078,16.76,106.3021,15.41,16.26,29.49,0,110.4,13.32,16.21,266.0
"2010-11-03 00:46:30",302794,0.45,307.7,6.858,0.042,16.82,106.2988,15.4,16.26,29.44,0,110.4,13.32,16.20,269.7
"2010-11-03 00:47:00",302795,0.327,305.4,4.541,0.03,16.67,106.2968,15.39,16.27,29.45,0,110.4,13.32,16.20,267.4
"2010-11-03 00:47:30",302796,0.295,311.8,5.104,0.035,16.76,106.2928,15.38,16.27,29.45,0,110.4,13.32,16.19,273.8
"2010-11-03 00:48:00",302797,0.362,304.2,3.977,0.053,16.68,106.2954,15.39,16.26,29.44,0,110.4,13.32,16.20,266.2
"2010-11-03 00:48:30",302798,0.415,298.8,3.673,0.052,16.68,106.2923,15.38,16.27,29.44,0,110.4,13.33,16.19,260.8
"2010-11-03 00:49:00",302799,0.443,299.7,4.322,0.055,16.69,106.2923,15.38,16.27,29.43,0,110.4,13.33,16.19,261.7
"2010-11-03 00:49:30",302800,0.323,311.9,6.682,0.031,16.81,106.2923,15.38,16.28,29.44,0,110.4,13.32,16.19,273.9
"2010-11-03 00:50:00",302801,0.268,324.3,8.66,0.062,16.87,106.2923,15.38,16.27,29.42,0,110.4,13.33,16.19,286.3
"2010-11-03 00:50:30",302802,0.228,311.1,13.09,0.032,16.79,106.2923,15.38,16.27,29.41,0,110.4,13.32,16.19,273.1
"2010-11-03 00:51:00",302803,0.19,305.6,8.25,0.048,16.78,106.2928,15.38,16.29,29.43,0,110.4,13.32,16.19,267.6
"2010-11-03 00:51:30",302804,0.201,290.7,6.463,0.064,16.79,106.2926,15.38,16.28,29.42,0,110.4,13.32,16.19,252.7
"2010-11-03 00:52:00",302805,0.282,297.9,11.4,0.045,16.74,106.2923,15.38,16.28,29.45,0,110.4,13.32,16.19,259.9
"2010-11-03 00:52:30",302806,0.225,310.2,4.368,0.032,16.74,106.2923,15.38,16.28,29.45,0,110.4,13.32,16.19,272.2
"2010-11-03 00:53:00",302807,0.195,294.8,5.656,0.059,16.73,106.2923,15.38,16.29,29.47,0,110.4,13.32,16.19,256.8
"2010-11-03 00:53:30",302808,0.158,309.9,5.095,0.04,16.76,106.2923,15.38,16.27,29.45,0,110.4,13.32,16.19,271.9
"2010-11-03 00:54:00",302809,0.133,317.4,6.34,0.019,16.73,106.2929,15.38,16.27,29.47,0,110.3,13.32,16.19,279.4
"2010-11-03 00:54:30",302810,0.144,307.3,12.66,0.045,16.78,106.2929,15.38,16.27,29.44,0,110.3,13.32,16.19,269.3
"2010-11-03 00:55:00",302811,0.153,278.6,15.32,0.08,16.87,106.2935,15.38,16.29,29.46,0,110.3,13.32,16.19,240.6
"2010-11-03 00:55:30",302812,0.209,241.7,6.141,0.089,16.76,106.2947,15.39,16.28,29.5,0,110.3,13.33,16.19,203.7
"2010-11-03 00:56:00",302813,0.009,277.9,35.1,0.068,16.9,106.2965,15.39,16.28,29.47,0,110.3,13.33,16.20,239.9
"2010-11-03 00:56:30",302814,0.168,326.7,6.38,0.043,16.81,106.2984,15.4,16.26,29.49,0,110.3,13.33,16.20,288.7
"2010-11-03 00:57:00",302815,0.161,313.8,4.677,0.064,16.77,106.2984,15.4,16.27,29.5,0,110.3,13.33,16.20,275.8
"2010-11-03 00:57:30",302816,0.171,303.8,7.537,0.137,16.81,106.3002,15.4,16.25,29.51,0,110.3,13.33,16.21,265.8
"2010-11-03 00:58:00",302817,0.249,289.8,21.12,0.073,16.89,106.2952,15.39,16.27,29.53,0,110.3,13.33,16.19,251.8
"2010-11-03 00:58:30",302818,0.006,221,49.25,0.111,16.73,106.2848,15.36,16.26,29.54,0,110.3,13.33,16.17,183.0
"2010-11-03 00:59:00",302819,0.279,268.1,14.03,0.276,16.89,106.2759,15.34,16.25,29.56,0,110.3,13.33,16.15,230.1
"2010-11-03 00:59:30",302820,0.63,291,6.148,0.096,16.75,106.2734,15.33,16.26,29.57,0,110.3,13.33,16.14,253.0
"2010-11-03 01:00:00",302821,0.448,299.5,5.596,0.085,16.71,106.2743,15.34,16.24,29.54,0,110.3,13.33,16.14,261.5
"2010-11-03 01:00:30",302822,0.207,312.7,17.81,0.067,16.73,106.277,15.34,16.25,29.56,0,110.3,13.34,16.15,274.7
"2010-11-03 01:01:00",302823,0.191,342.5,10.78,0.088,16.76,106.2791,15.35,16.24,29.54,0,110.3,13.34,16.15,304.5
"2010-11-03 01:01:30",302824,0.147,345.9,15.18,0.114,16.76,106.2854,15.36,16.24,29.49,0,110.3,13.34,16.17,307.9
"2010-11-03 01:02:00",302825,-0.006,21.76,21.49,0.085,16.69,106.2872,15.37,16.24,29.5,0,110.3,13.34,16.17,343.8
"2010-11-03 01:02:30",302826,-0.043,13.3,15.49,0.073,16.69,106.2902,15.38,16.23,29.55,0,110.3,13.34,16.18,335.3
"2010-11-03 01:03:00",302827,0.109,17.25,14.07,0.111,16.76,106.2687,15.32,16.23,29.58,0,110.3,13.34,16.13,339.2
"2010-11-03 01:03:30",302828,0.085,357.6,22.85,0.151,16.77,106.26,15.3,16.18,29.66,0,110.3,13.34,16.10,319.6
"2010-11-03 01:04:00",302829,-0.042,4.762,22.03,0.059,16.67,106.2606,15.3,16.17,29.68,0,110.3,13.34,16.11,326.8
"2010-11-03 01:04:30",302830,0.028,3.326,18.16,0.08,16.71,106.2589,15.3,16.16,29.7,0,110.3,13.34,16.10,325.3
"2010-11-03 01:05:00",302831,0.11,12.03,6.472,0.119,16.83,106.2366,15.24,16.14,29.72,0,110.3,13.34,16.04,334.0
"2010-11-03 01:05:30",302832,-0.024,0.815,17.09,0.107,16.84,106.2267,15.21,16.11,29.74,0,110.3,13.34,16.02,322.8
"2010-11-03 01:06:00",302833,-0.049,337.3,20.05,0.063,16.83,106.2267,15.21,16.09,29.79,0,110.3,13.34,16.02,299.3
"2010-11-03 01:06:30",302834,-0.027,343.7,17.38,0.053,16.74,106.2318,15.23,16.09,29.84,0,110.3,13.34,16.03,305.7
"2010-11-03 01:07:00",302835,-0.099,111,31.94,0.033,16.9,106.2513,15.28,16.11,29.83,0,110.3,13.34,16.08,73.0
"2010-11-03 01:07:30",302836,-0.053,120.5,9.66,0.034,16.9,106.2594,15.3,16.11,29.81,0,110.3,13.34,16.10,82.5
"2010-11-03 01:08:00",302837,0.093,130.7,7.184,0.053,16.74,106.2606,15.3,16.14,29.8,0,110.3,13.34,16.11,92.7
"2010-11-03 01:08:30",302838,0.131,124.9,9.18,0.028,16.78,106.2606,15.3,16.13,29.76,0,110.3,13.34,16.11,86.9
"2010-11-03 01:09:00",302839,0.063,135.7,10.78,0.083,16.78,106.2606,15.3,16.15,29.72,0,110.3,13.34,16.11,97.7
"2010-11-03 01:09:30",302840,0.019,145.2,6.043,0.04,16.74,106.2609,15.3,16.15,29.7,0,110.3,13.34,16.11,107.2
"2010-11-03 01:10:00",302841,-0.041,129.8,5.874,0.034,16.82,106.2642,15.31,16.16,29.67,0,110.3,13.34,16.12,91.8
"2010-11-03 01:10:30",302842,-0.076,74.25,41.98,0.052,16.91,106.2628,15.31,16.17,29.65,0,110.3,13.34,16.11,36.2
"2010-11-03 01:11:00",302843,0.092,48.76,7.122,0.093,16.81,106.2575,15.29,16.16,29.71,0,110.3,13.34,16.10,10.8
"2010-11-03 01:11:30",302844,0.195,46.72,6.57,0.071,16.79,106.2428,15.25,16.16,29.74,0,110.3,13.34,16.06,8.7
"2010-11-03 01:12:00",302845,0.074,95.6,13.72,0.04,16.95,106.2515,15.28,16.16,29.73,0,110.3,13.34,16.08,57.6
"2010-11-03 01:12:30",302846,0.133,73.12,7.061,0.036,16.91,106.2606,15.3,16.14,29.73,0,110.3,13.35,16.11,35.1
"2010-11-03 01:13:00",302847,0.161,82,14.37,0.056,16.94,106.2606,15.3,16.16,29.73,0,110.3,13.35,16.11,44.0
"2010-11-03 01:13:30",302848,0.171,89.4,5.748,0.061,16.97,106.2606,15.3,16.17,29.72,0,110.3,13.35,16.11,51.4
"2010-11-03 01:14:00",302849,0.273,83.4,15.39,0.055,16.87,106.2606,15.3,16.17,29.68,0,110.3,13.35,16.11,45.4
"2010-11-03 01:14:30",302850,0.428,100.4,6.807,0.063,16.85,106.2606,15.3,16.18,29.64,0,110.3,13.35,16.11,62.4
"2010-11-03 01:15:00",302851,0.504,104.5,4.086,0.033,16.76,106.2609,15.3,16.19,29.63,0,110.3,13.35,16.11,66.5
"2010-11-03 01:15:30",302852,0.47,106.6,2.99,0.043,16.71,106.2606,15.3,16.19,29.63,0,110.3,13.35,16.11,68.6
"2010-11-03 01:16:00",302853,0.5,108,3.257,0.035,16.71,106.2606,15.3,16.2,29.62,0,110.3,13.35,16.11,70.0
"2010-11-03 01:16:30",302854,0.561,101.6,2.117,0.049,16.7,106.2609,15.3,16.21,29.59,0,110.3,13.35,16.11,63.6
"2010-11-03 01:17:00",302855,0.569,100.8,10.7,0.16,16.78,106.2606,15.3,16.21,29.6,0,110.3,13.35,16.11,62.8
"2010-11-03 01:17:30",302856,0.893,88.5,7.087,0.11,16.82,106.2642,15.31,16.21,29.66,0,110.3,13.35,16.12,50.5
"2010-11-03 01:18:00",302857,0.648,84.2,10.49,0.123,16.85,106.2752,15.34,16.21,29.73,0,110.3,13.35,16.14,46.2
"2010-11-03 01:18:30",302858,0.94,73.51,4.973,0.105,16.71,106.2862,15.37,16.22,29.63,0,110.3,13.35,16.17,35.5
"2010-11-03 01:19:00",302859,1.358,71.43,3.536,0.098,16.85,106.2868,15.37,16.23,29.61,0,110.3,13.35,16.17,33.4
"2010-11-03 01:19:30",302860,1.126,69.64,4.002,0.151,16.82,106.2874,15.37,16.22,29.62,0,110.3,13.35,16.17,31.6
"2010-11-03 01:20:00",302861,1.25,63.99,5.015,0.199,16.81,106.2866,15.37,16.23,29.56,0,110.3,13.35,16.17,26.0
"2010-11-03 01:20:30",302862,1.333,70.21,2.284,0.084,16.86,106.2878,15.37,16.24,29.53,0,110.3,13.36,16.18,32.2
"2010-11-03 01:21:00",302863,1.268,63.55,5.054,0.075,16.79,106.2901,15.38,16.25,29.53,0,110.3,13.36,16.18,25.5
"2010-11-03 01:21:30",302864,1.057,74.16,8.85,0.199,16.76,106.2914,15.38,16.24,29.52,0,110.3,13.36,16.19,36.2
"2010-11-03 01:22:00",302865,1.325,62.24,9.46,0.209,16.69,106.2911,15.38,16.24,29.53,0,110.3,13.36,16.18,24.2
"2010-11-03 01:22:30",302866,1.075,51.51,6.646,0.141,16.74,106.2866,15.37,16.25,29.52,0,110.3,13.36,16.17,13.5
"2010-11-03 01:23:00",302867,0.813,67.65,12.96,0.103,16.77,106.2731,15.33,16.25,29.52,0,110.3,13.36,16.14,29.7
"2010-11-03 01:23:30",302868,0.965,113.7,20.26,0.18,16.68,106.2714,15.33,16.24,29.57,0,110.3,13.35,16.13,75.7
"2010-11-03 01:24:00",302869,1.069,137.2,2.614,0.095,16.75,106.2681,15.32,16.24,29.61,0,110.3,13.35,16.13,99.2
"2010-11-03 01:24:30",302870,1.221,128.2,8.79,0.12,16.75,106.2681,15.32,16.25,29.58,0,110.3,13.35,16.13,90.2
"2010-11-03 01:25:00",302871,1.141,101.4,11.11,0.125,16.74,106.2684,15.32,16.24,29.58,0,110.3,13.35,16.13,63.4
"2010-11-03 01:25:30",302872,1.349,110.5,5.443,0.056,16.81,106.2699,15.32,16.24,29.55,0,110.3,13.35,16.13,72.5
"2010-11-03 01:26:00",302873,1.38,101.5,6.276,0.146,16.73,106.269,15.32,16.23,29.54,0,110.3,13.35,16.13,63.5
"2010-11-03 01:26:30",302874,1.48,87.3,2.722,0.135,16.81,106.2699,15.32,16.21,29.55,0,110.3,13.35,16.13,49.3
"2010-11-03 01:27:00",302875,1.512,97.8,6.674,0.061,16.72,106.2708,15.33,16.23,29.59,0,110.3,13.35,16.13,59.8
"2010-11-03 01:27:30",302876,1.469,90.1,3.445,0.139,16.77,106.2717,15.33,16.23,29.56,0,110.3,13.35,16.13,52.1
"2010-11-03 01:28:00",302877,1.489,86.7,5.042,0.14,16.74,106.272,15.33,16.22,29.62,0,110.3,13.35,16.14,48.7
"2010-11-03 01:28:30",302878,1.659,104.1,8.18,0.102,16.77,106.2702,15.32,16.22,29.66,0,110.3,13.35,16.13,66.1
"2010-11-03 01:29:00",302879,1.692,118.4,5.607,0.161,16.71,106.272,15.33,16.22,29.63,0,110.3,13.36,16.14,80.4
"2010-11-03 01:29:30",302880,1.565,90,6.243,0.169,16.73,106.2723,15.33,16.23,29.64,0,110.3,13.36,16.14,52.0
"2010-11-03 01:30:00",302881,1.693,89.6,8.5,0.195,16.7,106.2723,15.33,16.22,29.68,0,110.3,13.36,16.14,51.6
"2010-11-03 01:30:30",302882,1.484,95.5,4.99,0.167,16.68,106.2732,15.33,16.23,29.7,0,110.3,13.36,16.14,57.5
"2010-11-03 01:31:00",302883,1.574,86.7,2.551,0.179,16.78,106.272,15.33,16.21,29.67,0,110.3,13.36,16.14,48.7
"2010-11-03 01:31:30",302884,1.466,87.5,4.886,0.13,16.72,106.2714,15.33,16.22,29.67,0,110.3,13.36,16.13,49.5
"2010-11-03 01:32:00",302885,1.687,89.1,3.016,0.11,16.78,106.2717,15.33,16.23,29.63,0,110.3,13.36,16.13,51.1
"2010-11-03 01:32:30",302886,1.642,76.84,5.177,0.226,16.67,106.2723,15.33,16.22,29.64,0,110.3,13.36,16.14,38.8
"2010-11-03 01:33:00",302887,1.46,86.6,13.62,0.174,16.72,106.2744,15.34,16.22,29.67,0,110.3,13.36,16.14,48.6
"2010-11-03 01:33:30",302888,1.469,87.6,9.13,0.17,16.68,106.2741,15.33,16.22,29.59,0,110.3,13.36,16.14,49.6
"2010-11-03 01:34:00",302889,1.273,86.3,9.45,0.145,16.69,106.2747,15.34,16.22,29.61,0,110.3,13.36,16.14,48.3
"2010-11-03 01:34:30",302890,1.273,112.3,3.949,0.12,16.7,106.2741,15.33,16.21,29.59,0,110.3,13.36,16.14,74.3
"2010-11-03 01:35:00",302891,0.88,104.4,6.352,0.247,16.63,106.2744,15.34,16.21,29.61,0,110.3,13.36,16.14,66.4
"2010-11-03 01:35:30",302892,1.134,81.4,4.922,0.123,16.67,106.2759,15.34,16.2,29.6,0,110.3,13.36,16.15,43.4
"2010-11-03 01:36:00",302893,1.478,94.9,5.115,0.154,16.63,106.2744,15.34,16.21,29.64,0,110.3,13.36,16.14,56.9
"2010-11-03 01:36:30",302894,1.269,89.9,7.91,0.173,16.72,106.2762,15.34,16.2,29.71,0,110.3,13.36,16.15,51.9
"2010-11-03 01:37:00",302895,1.288,91.6,7.423,0.168,16.7,106.2774,15.34,16.2,29.65,0,110.3,13.36,16.15,53.6
"2010-11-03 01:37:30",302896,1.853,97.2,8.53,0.25,16.71,106.2756,15.34,16.2,29.74,0,110.3,13.36,16.14,59.2
"2010-11-03 01:38:00",302897,1.462,83.4,8.16,0.44,16.73,106.2753,15.34,16.2,29.79,0,110.3,13.36,16.14,45.4
"2010-11-03 01:38:30",302898,2.311,72.66,7.738,0.805,16.67,106.2711,15.33,16.2,29.93,0,110.3,13.36,16.13,34.7
"2010-11-03 01:39:00",302899,2.692,68.8,4.414,0.345,16.68,106.2635,15.31,16.18,30.03,0,110.3,13.36,16.11,30.8
"2010-11-03 01:39:30",302900,2.162,69.31,13.87,0.148,16.6,106.2555,15.29,16.19,30.02,0,110.3,13.36,16.09,31.3
"2010-11-03 01:40:00",302901,2.37,80.5,7,0.601,16.62,106.2494,15.27,16.17,29.92,0,110.3,13.36,16.08,42.5
"2010-11-03 01:40:30",302902,2.851,91.9,2.932,0.37,16.65,106.2402,15.25,16.16,29.84,0,110.3,13.36,16.05,53.9
"2010-11-03 01:41:00",302903,2.228,94.2,5.564,0.161,16.69,106.2423,15.25,16.16,29.89,0,110.3,13.36,16.06,56.2
"2010-11-03 01:41:30",302904,1.737,100.5,12.11,0.316,16.67,106.2393,15.25,16.15,29.88,0,110.3,13.35,16.05,62.5
"2010-11-03 01:42:00",302905,2.117,84.3,7.329,0.29,16.66,106.2402,15.25,16.14,29.85,0,110.3,13.35,16.05,46.3
"2010-11-03 01:42:30",302906,2.78,82.1,3.944,0.439,16.68,106.2414,15.25,16.14,30.04,0,110.3,13.35,16.06,44.1
"2010-11-03 01:43:00",302907,3.208,86.8,2.944,0.367,16.61,106.2411,15.25,16.14,30.35,0,110.3,13.35,16.06,48.8
"2010-11-03 01:43:30",302908,3.541,86.7,2.661,0.201,16.65,106.2423,15.25,16.14,30.33,0,110.3,13.36,16.06,48.7
"2010-11-03 01:44:00",302909,3.558,85.4,2.125,0.223,16.72,106.2408,15.25,16.13,30.3,0,110.3,13.35,16.05,47.4
"2010-11-03 01:44:30",302910,3.415,85.4,1.634,0.143,16.68,106.2435,15.26,16.13,30.3,0,110.3,13.35,16.06,47.4
"2010-11-03 01:45:00",302911,3.214,89.2,1.545,0.089,16.7,106.2423,15.25,16.11,30.23,0,110.3,13.36,16.06,51.2
"2010-11-03 01:45:30",302912,3.306,95,2.802,0.155,16.63,106.2399,15.25,16.13,30.26,0,110.3,13.36,16.05,57.0
"2010-11-03 01:46:00",302913,3.11,94,1.269,0.131,16.58,106.2402,15.25,16.12,30.42,0,110.3,13.36,16.05,56.0
"2010-11-03 01:46:30",302914,3.04,93.5,1.559,0.071,16.6,106.2396,15.25,16.11,30.42,0,110.3,13.36,16.05,55.5
"2010-11-03 01:47:00",302915,2.918,92.4,1.672,0.102,16.59,106.2393,15.25,16.11,30.33,0,110.3,13.36,16.05,54.4
"2010-11-03 01:47:30",302916,2.858,86.3,2.318,0.109,16.63,106.2378,15.24,16.12,30.32,0,110.3,13.36,16.05,48.3
"2010-11-03 01:48:00",302917,2.796,80.1,1.773,0.122,16.68,106.2366,15.24,16.11,30.26,0,110.3,13.36,16.04,42.1